Location: Newark
(45.5000°N, 11.4167°E)
Time: 08:55:59
(UTC+00:00)

Altair - Pass Details

Date: 26 August 2019
Orbit: 1501 x 1683 km, 47.2° (Epoch: 23 September)

Event Time Altitude Azimuth Distance (km) Brightness Sun altitude
Exits shadow 23:20:43 21° 106° (ESE) 3,048 8.9 -34.2°
Drops below altitude 10° 23:25:06 10° 81° (E) 3,821 9.7 -34.2°
Sets 23:28:53 0° 69° (ENE) 4,779 10.4 -34.2°
